User: anonymous   Login
Location: Unspecified
(0.0000°N, 0.0000°E)
Time: 02:59:11
(UTC+00:00)
Language:

COSMOS 2391 - Orbit

View from above orbital plane
View from above orbital plane
View from above satellite
View from above satellite

Ground track
Ground track

The orbit data is extracted from the following two-line orbital elements,

1 27465U 02036B   17232.83829317  .00000015  00000-0  31552-4 0  9997
2 27465  82.4828 197.5093 0026877 102.9921 257.4172 12.44877858687133
Epoch (UTC): 20 August 2017 20:07:08
Eccentricity: 0.0026877
inclination: 82.4828°
perigee height: 1465 km
apogee height: 1507 km
right ascension of ascending node: 197.5093°
argument of perigee: 102.9921°
revolutions per day: 12.44877858
mean anomaly at epoch: 257.4172°
orbit number at epoch: 68713

The dashed part of the orbit path shows where the satellite is in the earth's shadow,  

DLR